This is the latest recevied weather packets stored in our database for station/object WC4PEM-1. If no packets are shown the sender has not sent any weather packets the latest 10 day(s).
| Time | Temp. | Humidity | Pressure | Rain* | Wind** | Luminosity | Snow |
|---|---|---|---|---|---|---|---|
| 1777504229 | 30° C | 53% | 1010.3 hPa | 0 mm | - | 28 W/m² | - |
| 1777504119 | 30° C | 53% | 1010.3 hPa | 0 mm | - | 28 W/m² | - |
| 1777503819 | 30° C | 53% | 1010.3 hPa | 0 mm | - | 30 W/m² | - |
| 1777503593 | 30.56° C | 53% | 1010.1 hPa | 0 mm | - | 32 W/m² | - |
| 1777503519 | 30.56° C | 53% | 1010.1 hPa | 0 mm | - | 32 W/m² | - |
| 1777503290 | 30.56° C | 50% | 1010.2 hPa | 0 mm | - | 35 W/m² | - |
| 1777503219 | 30.56° C | 50% | 1010.2 hPa | 0 mm | - | 35 W/m² | - |
| 1777502919 | 30.56° C | 49% | 1010.2 hPa | 0 mm | - | 37 W/m² | - |
| 1777502620 | 30.56° C | 48% | 1010.2 hPa | 0 mm | - | 37 W/m² | - |
| 1777502319 | 31.11° C | 47% | 1010.1 hPa | 0 mm | - | 39 W/m² | - |
| 1777502019 | 31.11° C | 47% | 1010.1 hPa | 0 mm | - | 40 W/m² | - |
| 1777501719 | 31.11° C | 46% | 1010.2 hPa | 0 mm | - | 42 W/m² | - |
| 1777501420 | 31.11° C | 46% | 1010.3 hPa | 0 mm | - | 47 W/m² | - |
| 1777501119 | 31.11° C | 46% | 1010.3 hPa | 0 mm | - | 44 W/m² | - |
| 1777500819 | 31.11° C | 46% | 1010.2 hPa | 0 mm | - | 46 W/m² | - |
| 1777500519 | 31.11° C | 46% | 1010.2 hPa | 0 mm | - | 47 W/m² | - |
| 1777500219 | 31.11° C | 45% | 1010.3 hPa | 0 mm | - | 49 W/m² | - |
| 1777499920 | 31.11° C | 45% | 1010.3 hPa | 0 mm | - | 53 W/m² | - |
| 1777499620 | 31.11° C | 44% | 1010.4 hPa | 0 mm | - | 54 W/m² | - |
| 1777499319 | 31.11° C | 45% | 1010.4 hPa | 0 mm | - | 58 W/m² | - |
| 1777499019 | 31.11° C | 46% | 1010.4 hPa | 0 mm | - | 58 W/m² | - |
| 1777498787 | 31.11° C | 46% | 1010.4 hPa | 0 mm | - | 60 W/m² | - |
| 1777498720 | 31.11° C | 46% | 1010.4 hPa | 0 mm | - | 60 W/m² | - |
| 1777498420 | 31.11° C | 46% | 1010.5 hPa | 0 mm | - | 62 W/m² | - |
| 1777498119 | 31.11° C | 46% | 1010.6 hPa | 0 mm | - | 65 W/m² | - |
* Rain latest hour (hover to see other rain measurements)
** Current wind speed in m/s (hover to see current wind gust speed)